Location: Chandrammap?lem
(16.9200°N, 81.0051°E)
Time: 03:53:06
(UTC+00:00)

Cosmos 1420 Rocket - Pass Details

Date: 29 May 2024
Orbit: 752 x 779 km, 74.0° (Epoch: 21 June)

Event Time Altitude Azimuth Distance (km) Brightness Sun altitude
Rises 14:23:32 0° 347° (NNW) 3,252 7.9 -17.6°
Reaches altitude 10° 14:25:55 10° 348° (NNW) 2,322 7.1 -18.1°
Maximum altitude 14:31:13 83° 77° (ENE) 782 3.9 -19.2°
Enters shadow 14:33:56 29° 163° (SSE) 1,375 4.9 -19.7°
